sat.trackr.live / text

‹ back to catalog

STARLINK-3320

NORAD 50839 · 2022-001AN

PAYLOAD ACTIVE UNKNOWN

§ Identity

Operator
Country
US
Launch date
2022-01-06
Launch site
AFETR
Launch vehicle
Mass (kg)
RCS (m²)

Purposes: comms

External: N2YO · Heavens-Above · Gunter

§ Orbital elements

Epoch: 2026-09-19T23:02:23.326080Z

Period
94.01 min
Inclination
53.1611°
Eccentricity
0.0001098
Mean motion
15.31696400 rev/d
Perigee alt
470.0 km
Apogee alt
471.5 km
Semi-major
6,848.9 km
B*
2.0510e-5
RAAN
12.2752°
Arg perigee
85.3746°
Mean anomaly
274.7381°
Rev number
25,978

§ Raw data

STARLINK-33201 50839U 22001AN  26262.95999220  .00000271  00000+0  20510-4 0  99942 50839  53.1611  12.2752 0001098  85.3746 274.7381 15.31696400259782

JSON: /api/v1/satellites/50839 · /tle

For live sub-satellite position, see the globe view (requires WebGL).

§ Visibility from observer

Set your observer location to see the next 7 days of passes ≥ 10°. The values pass through the URL so the page stays shareable.

No JS? Fill the form by hand. The geolocation button needs JavaScript.